Weather in Chernomorskoe

Russia / Republic of Crimea     45°30′33″N   32°42′12″E
В апреле 2022 года жителям России запретили посещать сайт meteo.paraplan.net по решению Генеральной прокуратуры. Аудитория сайта уменьшилась в 10 раз. Владельцы сайта не видят смысла в поддержке погодного сервера в таких условиях. Сайт будет закрыт в октябре.
temp.,
°C
wind,
m/s
gust,
m/s
humid.,
%
clouds,
%
prec.,
mm/h
press.,
hPa
HPBL,
m
30 september, fri
fri3000:00+20sse812880 0.0 1012322
03:00+20s813845 0.3 1012355
06:00+20s813840 0.2 1013317
09:00+21s912760 0.3 1014331
12:00+23s810683 0.0 1015385
15:00+23s810720 0.0 1016388
18:00+21ssw68820 0.0 1016249
21:00+20s47840 0.0 1017131
1 october, sat
sat100:00+20s58865 0.0 1018157
03:00+20ssw588994 0.0 1019158
06:00+20ssw468813 0.0 101996
09:00+21ssw557622 0.0 1019153
12:00+23ssw556475 0.0 1019272
15:00+23ssw67642 0.0 1018311
18:00+22ssw6973100 0.0 1017212
21:00+21s697792 0.0 1016185
2 october, sun
sun200:00+20s71178100 0.0 1014202
03:00+20s81378100 0.0 1013275
06:00+20s91480100 0.0 1011310
09:00+21s71278100 0.0 1009354
12:00+21s5877100 0.7 1007307
15:00+20w6787100 1.8 1006531
18:00+18wnw81085100 1.5 1006678
21:00+18nw111280100 2.8 1007761
3 october, mon
mon300:00+16nw11127223 0.0 1008961
03:00+16nw11126910 0.0 10101111
06:00+15nw9107217 0.1 1011967
09:00+15nw9107132 1.1 10121136
12:00+16nw9106310 0.5 10131436
15:00+16wnw910603 0.8 10141417
18:00+16wnw79585 0.8 10151230
21:00+16nw795769 1.9 10171019
4 october, tue
tue400:00+16nw56585 0.8 1017742
03:00+16wnw455535 0.8 1017847
06:00+15wnw67640 0.4 1018815
09:00+16nnw34642 0.4 1019864
12:00+16wnw33585 0.0 1019778
15:00+17wsw34525 0.0 1019966
18:00+17sw3455100 0.0 1019527
21:00+16s4563100 0.0 1019540